#Datum;Uhrzeit;WR;Pac;DaySum;Status;WR;Pac;DaySum;Status;Pdc1;Udc;Temp;WR;Pac;DaySum;Status;Pdc1;Udc;Temp;WR;Pac;DaySum;Status;Pdc1;Udc;Temp;WR;Pac;DaySum;Status;Pdc1;Pdc2;Udc1;Udc2;Temp;WR;Pac;DaySum;Status;Pdc1;Pdc2;Udc1;Udc2;Temp;WR;Pac;DaySum;Status;Pdc1;Udc;Temp;WR;Pac;DaySum;Status;Pdc1;Udc;Temp;WR;Pac;DaySum;Status;Pdc1;Udc;Temp
17.11.19;23:55:00;1;299;12564;0;2;0;12119;0;0;0;0;3;0;7929;0;0;0;0;4;0;9254;0;0;0;0;5;0;27701;0;0;0;0;0;0;6;0;21118;0;0;0;0;0;0;7;0;18670;0;0;0;0;8;0;18430;0;0;0;0;9;0;9899;0;0;0;0
17.11.19;23:50:00;1;307;12539;0;2;0;12119;0;0;0;0;3;0;7929;0;0;0;0;4;0;9254;0;0;0;0;5;0;27701;0;0;0;0;0;0;6;0;21118;0;0;0;0;0;0;7;0;18670;0;0;0;0;8;0;18430;0;0;0;0;9;0;9899;0;0;0;0
17.11.19;23:45:00;1;341;12514;0;2;0;12119;0;0;0;0;3;0;7929;0;0;0;0;4;0;9254;0;0;0;0;5;0;27701;0;0;0;0;0;0;6;0;21118;0;0;0;0;0;0;7;0;18670;0;0;0;0;8;0;18430;0;0;0;0;9;0;9899;0;0;0;0
17.11.19;23:40:00;1;327;12485;0;2;0;12119;0;0;0;0;3;0;7929;0;0;0;0;4;0;9254;0;0;0;0;5;0;27701;0;0;0;0;0;0;6;0;21118;0;0;0;0;0;0;7;0;18670;0;0;0;0;8;0;18430;0;0;0;0;9;0;9899;0;0;0;0
17.11.19;23:35:00;1;330;12457;0;2;0;12119;0;0;0;0;3;0;7929;0;0;0;0;4;0;9254;0;0;0;0;5;0;27701;0;0;0;0;0;0;6;0;21118;0;0;0;0;0;0;7;0;18670;0;0;0;0;8;0;18430;0;0;0;0;9;0;9899;0;0;0;0
17.11.19;23:30:00;1;332;12429;0;2;0;12119;0;0;0;0;3;0;7929;0;0;0;0;4;0;9254;0;0;0;0;5;0;27701;0;0;0;0;0;0;6;0;21118;0;0;0;0;0;0;7;0;18670;0;0;0;0;8;0;18430;0;0;0;0;9;0;9899;0;0;0;0
17.11.19;23:25:00;1;349;12402;0;2;0;12119;0;0;0;0;3;0;7929;0;0;0;0;4;0;9254;0;0;0;0;5;0;27701;0;0;0;0;0;0;6;0;21118;0;0;0;0;0;0;7;0;18670;0;0;0;0;8;0;18430;0;0;0;0;9;0;9899;0;0;0;0
17.11.19;23:20:00;1;232;12377;0;2;0;12119;0;0;0;0;3;0;7929;0;0;0;0;4;0;9254;0;0;0;0;5;0;27701;0;0;0;0;0;0;6;0;21118;0;0;0;0;0;0;7;0;18670;0;0;0;0;8;0;18430;0;0;0;0;9;0;9899;0;0;0;0
17.11.19;23:15:00;1;220;12357;0;2;0;12119;0;0;0;0;3;0;7929;0;0;0;0;4;0;9254;0;0;0;0;5;0;27701;0;0;0;0;0;0;6;0;21118;0;0;0;0;0;0;7;0;18670;0;0;0;0;8;0;18430;0;0;0;0;9;0;9899;0;0;0;0
17.11.19;23:10:00;1;219;12338;0;2;0;12119;0;0;0;0;3;0;7929;0;0;0;0;4;0;9254;0;0;0;0;5;0;27701;0;0;0;0;0;0;6;0;21118;0;0;0;0;0;0;7;0;18670;0;0;0;0;8;0;18430;0;0;0;0;9;0;9899;0;0;0;0
17.11.19;23:07:00;1;219;12331;0;2;0;12119;0;0;0;0;3;0;7929;0;0;0;0;4;0;9254;0;0;0;0;5;0;27701;0;0;0;0;0;0;6;0;21118;0;0;0;0;0;0;7;0;18670;0;0;0;0;8;0;18430;0;0;0;0;9;0;9899;0;0;0;0
17.11.19;23:00:00;1;257;12295;0;2;0;12119;0;0;0;0;3;0;7929;0;0;0;0;4;0;9254;0;0;0;0;5;0;27701;0;0;0;0;0;0;6;0;21118;0;0;0;0;0;0;7;0;18670;0;0;0;0;8;0;18430;0;0;0;0;9;0;9899;0;0;0;0
17.11.19;22:55:00;1;313;12274;0;2;0;12119;0;0;0;0;3;0;7929;0;0;0;0;4;0;9254;0;0;0;0;5;0;27701;2;0;0;0;0;0;6;0;21118;2;0;0;0;0;0;7;0;18670;0;0;0;0;8;0;18430;0;0;0;0;9;0;9899;0;0;0;0
17.11.19;22:50:00;1;429;12244;0;2;0;12119;0;0;0;0;3;0;7929;0;0;0;0;4;0;9254;0;0;0;0;5;0;27701;2;0;0;0;0;0;6;0;21118;2;0;0;0;0;0;7;0;18670;0;0;0;0;8;0;18430;0;0;0;0;9;0;9899;0;0;0;0
17.11.19;22:45:00;1;419;12208;0;2;0;12119;0;0;0;0;3;0;7929;0;0;0;0;4;0;9254;0;0;0;0;5;0;27701;2;0;0;0;0;0;6;0;21118;2;0;0;0;0;0;7;0;18670;0;0;0;0;8;0;18430;0;0;0;0;9;0;9899;0;0;0;0
17.11.19;22:40:00;1;389;12173;0;2;0;12119;0;0;0;0;3;0;7929;0;0;0;0;4;0;9254;0;0;0;0;5;0;27701;2;0;0;0;0;0;6;0;21118;2;0;0;0;0;0;7;0;18670;0;0;0;0;8;0;18430;0;0;0;0;9;0;9899;0;0;0;0
17.11.19;22:35:00;1;367;12141;0;2;0;12119;0;0;0;0;3;0;7929;0;0;0;0;4;0;9254;0;0;0;0;5;0;27701;2;0;0;0;0;0;6;0;21118;2;0;0;0;0;0;7;0;18670;0;0;0;0;8;0;18430;0;0;0;0;9;0;9899;0;0;0;0
17.11.19;22:30:00;1;386;12110;0;2;0;12119;0;0;0;0;3;0;7929;0;0;0;0;4;0;9254;0;0;0;0;5;0;27701;2;0;0;0;0;0;6;0;21118;2;0;0;0;0;0;7;0;18670;0;0;0;0;8;0;18430;0;0;0;0;9;0;9899;0;0;0;0
17.11.19;22:25:00;1;435;12077;0;2;0;12119;0;0;0;0;3;0;7929;0;0;0;0;4;0;9254;0;0;0;0;5;0;27701;2;0;0;0;0;0;6;0;21118;2;0;0;0;0;0;7;0;18670;0;0;0;0;8;0;18430;0;0;0;0;9;0;9899;0;0;0;0
17.11.19;22:20:00;1;379;12041;0;2;0;12119;0;0;0;0;3;0;7929;0;0;0;0;4;0;9254;0;0;0;0;5;0;27701;2;0;0;0;0;0;6;0;21118;2;0;0;0;0;0;7;0;18670;0;0;0;0;8;0;18430;0;0;0;0;9;0;9899;0;0;0;0
17.11.19;22:15:00;1;366;12009;0;2;0;12119;0;0;0;0;3;0;7929;0;0;0;0;4;0;9254;0;0;0;0;5;0;27701;2;0;0;0;0;0;6;0;21118;2;0;0;0;0;0;7;0;18670;0;0;0;0;8;0;18430;0;0;0;0;9;0;9899;0;0;0;0
17.11.19;22:10:00;1;402;11978;0;2;0;12119;0;0;0;0;3;0;7929;0;0;0;0;4;0;9254;0;0;0;0;5;0;27701;2;0;0;0;0;0;6;0;21118;2;0;0;0;0;0;7;0;18670;0;0;0;0;8;0;18430;0;0;0;0;9;0;9899;0;0;0;0
17.11.19;22:05:00;1;427;11944;0;2;0;12119;0;0;0;0;3;0;7929;0;0;0;0;4;0;9254;0;0;0;0;5;0;27701;2;0;0;0;0;0;6;0;21118;2;0;0;0;0;0;7;0;18670;0;0;0;0;8;0;18430;0;0;0;0;9;0;9899;0;0;0;0
17.11.19;22:00:00;1;464;11908;0;2;0;12119;0;0;0;0;3;0;7929;0;0;0;0;4;0;9254;0;0;0;0;5;0;27701;2;0;0;0;0;0;6;0;21118;2;0;0;0;0;0;7;0;18670;0;0;0;0;8;0;18430;0;0;0;0;9;0;9899;0;0;0;0
17.11.19;21:55:00;1;470;11869;0;2;0;12119;0;0;0;0;3;0;7929;0;0;0;0;4;0;9254;0;0;0;0;5;0;27701;2;0;0;0;0;0;6;0;21118;2;0;0;0;0;0;7;0;18670;0;0;0;0;8;0;18430;0;0;0;0;9;0;9899;0;0;0;0
17.11.19;21:50:00;1;459;11831;0;2;0;12119;0;0;0;0;3;0;7929;0;0;0;0;4;0;9254;0;0;0;0;5;0;27701;2;0;0;0;0;0;6;0;21118;2;0;0;0;0;0;7;0;18670;0;0;0;0;8;0;18430;0;0;0;0;9;0;9899;0;0;0;0
17.11.19;21:45:00;1;501;11792;0;2;0;12119;0;0;0;0;3;0;7929;0;0;0;0;4;0;9254;0;0;0;0;5;0;27701;2;0;0;0;0;0;6;0;21118;2;0;0;0;0;0;7;0;18670;0;0;0;0;8;0;18430;0;0;0;0;9;0;9899;0;0;0;0
17.11.19;21:40:00;1;447;11751;0;2;0;12119;0;0;0;0;3;0;7929;0;0;0;0;4;0;9254;0;0;0;0;5;0;27701;2;0;0;0;0;0;6;0;21118;2;0;0;0;0;0;7;0;18670;0;0;0;0;8;0;18430;0;0;0;0;9;0;9899;0;0;0;0
17.11.19;21:35:00;1;450;11713;0;2;0;12119;0;0;0;0;3;0;7929;0;0;0;0;4;0;9254;0;0;0;0;5;0;27701;2;0;0;0;0;0;6;0;21118;2;0;0;0;0;0;7;0;18670;0;0;0;0;8;0;18430;0;0;0;0;9;0;9899;0;0;0;0
17.11.19;21:30:00;1;456;11676;0;2;0;12119;0;0;0;0;3;0;7929;0;0;0;0;4;0;9254;0;0;0;0;5;0;27701;2;0;0;0;0;0;6;0;21118;2;0;0;0;0;0;7;0;18670;0;0;0;0;8;0;18430;0;0;0;0;9;0;9899;0;0;0;0
17.11.19;21:25:00;1;486;11637;0;2;0;12119;0;0;0;0;3;0;7929;0;0;0;0;4;0;9254;0;0;0;0;5;0;27701;2;0;0;0;0;0;6;0;21118;2;0;0;0;0;0;7;0;18670;0;0;0;0;8;0;18430;0;0;0;0;9;0;9899;0;0;0;0
17.11.19;21:20:00;1;433;11597;0;2;0;12119;0;0;0;0;3;0;7929;0;0;0;0;4;0;9254;0;0;0;0;5;0;27701;2;0;0;0;0;0;6;0;21118;2;0;0;0;0;0;7;0;18670;0;0;0;0;8;0;18430;0;0;0;0;9;0;9899;0;0;0;0
17.11.19;21:15:00;1;418;11562;0;2;0;12119;0;0;0;0;3;0;7929;0;0;0;0;4;0;9254;0;0;0;0;5;0;27701;2;0;0;0;0;0;6;0;21118;2;0;0;0;0;0;7;0;18670;0;0;0;0;8;0;18430;0;0;0;0;9;0;9899;0;0;0;0
17.11.19;21:10:00;1;400;11526;0;2;0;12119;0;0;0;0;3;0;7929;0;0;0;0;4;0;9254;0;0;0;0;5;0;27701;2;0;0;0;0;0;6;0;21118;2;0;0;0;0;0;7;0;18670;0;0;0;0;8;0;18430;0;0;0;0;9;0;9899;0;0;0;0
17.11.19;21:05:00;1;432;11491;0;2;0;12119;0;0;0;0;3;0;7929;0;0;0;0;4;0;9254;0;0;0;0;5;0;27701;2;0;0;0;0;0;6;0;21118;2;0;0;0;0;0;7;0;18670;0;0;0;0;8;0;18430;0;0;0;0;9;0;9899;0;0;0;0
17.11.19;21:00:00;1;377;11456;0;2;0;12119;0;0;0;0;3;0;7929;0;0;0;0;4;0;9254;0;0;0;0;5;0;27701;2;0;0;0;0;0;6;0;21118;2;0;0;0;0;0;7;0;18670;0;0;0;0;8;0;18430;0;0;0;0;9;0;9899;0;0;0;0
17.11.19;20:55:00;1;371;11424;0;2;0;12119;0;0;0;0;3;0;7929;0;0;0;0;4;0;9254;0;0;0;0;5;0;27701;2;0;0;0;0;0;6;0;21118;2;0;0;0;0;0;7;0;18670;0;0;0;0;8;0;18430;0;0;0;0;9;0;9899;0;0;0;0
17.11.19;20:50:00;1;365;11392;0;2;0;12119;0;0;0;0;3;0;7929;0;0;0;0;4;0;9254;0;0;0;0;5;0;27701;2;0;0;0;0;0;6;0;21118;2;0;0;0;0;0;7;0;18670;0;0;0;0;8;0;18430;0;0;0;0;9;0;9899;0;0;0;0
17.11.19;20:45:00;1;353;11362;0;2;0;12119;0;0;0;0;3;0;7929;0;0;0;0;4;0;9254;0;0;0;0;5;0;27701;2;0;0;0;0;0;6;0;21118;2;0;0;0;0;0;7;0;18670;0;0;0;0;8;0;18430;0;0;0;0;9;0;9899;0;0;0;0
17.11.19;20:40:00;1;406;11332;0;2;0;12119;0;0;0;0;3;0;7929;0;0;0;0;4;0;9254;0;0;0;0;5;0;27701;2;0;0;0;0;0;6;0;21118;2;0;0;0;0;0;7;0;18670;0;0;0;0;8;0;18430;0;0;0;0;9;0;9899;0;0;0;0
17.11.19;20:35:00;1;411;11298;0;2;0;12119;0;0;0;0;3;0;7929;0;0;0;0;4;0;9254;0;0;0;0;5;0;27701;2;0;0;0;0;0;6;0;21118;2;0;0;0;0;0;7;0;18670;0;0;0;0;8;0;18430;0;0;0;0;9;0;9899;0;0;0;0
17.11.19;20:30:00;1;1382;11263;0;2;0;12119;0;0;0;0;3;0;7929;0;0;0;0;4;0;9254;0;0;0;0;5;0;27701;2;0;0;0;0;0;6;0;21118;2;0;0;0;0;0;7;0;18670;0;0;0;0;8;0;18430;0;0;0;0;9;0;9899;0;0;0;0
17.11.19;20:25:00;1;479;11169;0;2;0;12119;0;0;0;0;3;0;7929;0;0;0;0;4;0;9254;0;0;0;0;5;0;27701;2;0;0;0;0;0;6;0;21118;2;0;0;0;0;0;7;0;18670;0;0;0;0;8;0;18430;0;0;0;0;9;0;9899;0;0;0;0
17.11.19;20:20:00;1;439;11130;0;2;0;12119;0;0;0;0;3;0;7929;0;0;0;0;4;0;9254;0;0;0;0;5;0;27701;2;0;0;0;0;0;6;0;21118;2;0;0;0;0;0;7;0;18670;0;0;0;0;8;0;18430;0;0;0;0;9;0;9899;0;0;0;0
17.11.19;20:15:00;1;479;11093;0;2;0;12119;0;0;0;0;3;0;7929;0;0;0;0;4;0;9254;0;0;0;0;5;0;27701;2;0;0;0;0;0;6;0;21118;2;0;0;0;0;0;7;0;18670;0;0;0;0;8;0;18430;0;0;0;0;9;0;9899;0;0;0;0
17.11.19;20:10:00;1;2458;11027;0;2;0;12119;0;0;0;0;3;0;7929;0;0;0;0;4;0;9254;0;0;0;0;5;0;27701;2;0;0;0;0;0;6;0;21118;2;0;0;0;0;0;7;0;18670;0;0;0;0;8;0;18430;0;0;0;0;9;0;9899;0;0;0;0
17.11.19;20:05:00;1;2424;10825;0;2;0;12119;0;0;0;0;3;0;7929;0;0;0;0;4;0;9254;0;0;0;0;5;0;27701;2;0;0;0;0;0;6;0;21118;2;0;0;0;0;0;7;0;18670;0;0;0;0;8;0;18430;0;0;0;0;9;0;9899;0;0;0;0
17.11.19;20:00:00;1;1738;10622;0;2;0;12119;0;0;0;0;3;0;7929;0;0;0;0;4;0;9254;0;0;0;0;5;0;27701;2;0;0;0;0;0;6;0;21118;2;0;0;0;0;0;7;0;18670;0;0;0;0;8;0;18430;0;0;0;0;9;0;9899;0;0;0;0
17.11.19;19:55:00;1;1586;10486;0;2;0;12119;0;0;0;0;3;0;7929;0;0;0;0;4;0;9254;0;0;0;0;5;0;27701;2;0;0;0;0;0;6;0;21118;2;0;0;0;0;0;7;0;18670;0;0;0;0;8;0;18430;0;0;0;0;9;0;9899;0;0;0;0
17.11.19;19:50:00;1;1044;10331;0;2;0;12119;0;0;0;0;3;0;7929;0;0;0;0;4;0;9254;0;0;0;0;5;0;27701;2;0;0;0;0;0;6;0;21118;2;0;0;0;0;0;7;0;18670;0;0;0;0;8;0;18430;0;0;0;0;9;0;9899;0;0;0;0
17.11.19;19:45:00;1;607;10278;0;2;0;12119;0;0;0;0;3;0;7929;0;0;0;0;4;0;9254;0;0;0;0;5;0;27701;2;0;0;0;0;0;6;0;21118;2;0;0;0;0;0;7;0;18670;0;0;0;0;8;0;18430;0;0;0;0;9;0;9899;0;0;0;0
17.11.19;19:40:00;1;1243;10231;0;2;0;12119;0;0;0;0;3;0;7929;0;0;0;0;4;0;9254;0;0;0;0;5;0;27701;2;0;0;0;0;0;6;0;21118;2;0;0;0;0;0;7;0;18670;0;0;0;0;8;0;18430;0;0;0;0;9;0;9899;0;0;0;0
17.11.19;19:35:00;1;2119;10122;0;2;0;12119;0;0;0;0;3;0;7929;0;0;0;0;4;0;9254;0;0;0;0;5;0;27701;2;0;0;0;0;0;6;0;21118;2;0;0;0;0;0;7;0;18670;0;0;0;0;8;0;18430;0;0;0;0;9;0;9899;0;0;0;0
17.11.19;19:30:00;1;507;9967;0;2;0;12119;0;0;0;0;3;0;7929;0;0;0;0;4;0;9254;0;0;0;0;5;0;27701;2;0;0;0;0;0;6;0;21118;2;0;0;0;0;0;7;0;18670;0;0;0;0;8;0;18430;0;0;0;0;9;0;9899;0;0;0;0
17.11.19;19:25:00;1;2387;9918;0;2;0;12119;0;0;0;0;3;0;7929;0;0;0;0;4;0;9254;0;0;0;0;5;0;27701;2;0;0;0;0;0;6;0;21118;2;0;0;0;0;0;7;0;18670;0;0;0;0;8;0;18430;0;0;0;0;9;0;9899;0;0;0;0
17.11.19;19:20:00;1;1186;9719;0;2;0;12119;0;0;0;0;3;0;7929;0;0;0;0;4;0;9254;0;0;0;0;5;0;27701;2;0;0;0;0;0;6;0;21118;2;0;0;0;0;0;7;0;18670;0;0;0;0;8;0;18430;0;0;0;0;9;0;9899;0;0;0;0
17.11.19;19:15:00;1;1052;9640;0;2;0;12119;0;0;0;0;3;0;7929;0;0;0;0;4;0;9254;0;0;0;0;5;0;27701;2;0;0;0;0;0;6;0;21118;2;0;0;0;0;0;7;0;18670;0;0;0;0;8;0;18430;0;0;0;0;9;0;9899;0;0;0;0
17.11.19;19:10:00;1;2459;9531;0;2;0;12119;0;0;0;0;3;0;7929;0;0;0;0;4;0;9254;0;0;0;0;5;0;27701;2;0;0;0;0;0;6;0;21118;2;0;0;0;0;0;7;0;18670;0;0;0;0;8;0;18430;0;0;0;0;9;0;9899;0;0;0;0
17.11.19;19:05:00;1;1909;9327;0;2;0;12119;0;0;0;0;3;0;7929;0;0;0;0;4;0;9254;0;0;0;0;5;0;27701;2;0;0;0;0;0;6;0;21118;2;0;0;0;0;0;7;0;18670;0;0;0;0;8;0;18430;0;0;0;0;9;0;9899;0;0;0;0
17.11.19;19:00:00;1;434;9218;0;2;0;12119;0;0;0;0;3;0;7929;0;0;0;0;4;0;9254;0;0;0;0;5;0;27701;2;0;0;0;0;0;6;0;21118;2;0;0;0;0;0;7;0;18670;0;0;0;0;8;0;18430;0;0;0;0;9;0;9899;0;0;0;0
17.11.19;18:55:00;1;433;9182;0;2;0;12119;0;0;0;0;3;0;7929;0;0;0;0;4;0;9254;0;0;0;0;5;0;27701;2;0;0;0;0;0;6;0;21118;2;0;0;0;0;0;7;0;18670;0;0;0;0;8;0;18430;0;0;0;0;9;0;9899;0;0;0;0
17.11.19;18:50:00;1;446;9146;0;2;0;12119;0;0;0;0;3;0;7929;0;0;0;0;4;0;9254;0;0;0;0;5;0;27701;2;0;0;0;0;0;6;0;21118;2;0;0;0;0;0;7;0;18670;0;0;0;0;8;0;18430;0;0;0;0;9;0;9899;0;0;0;0
17.11.19;18:45:00;1;405;9109;0;2;0;12119;0;0;0;0;3;0;7929;0;0;0;0;4;0;9254;0;0;0;0;5;0;27701;2;0;0;0;0;0;6;0;21118;2;0;0;0;0;0;7;0;18670;0;0;0;0;8;0;18430;0;0;0;0;9;0;9899;0;0;0;0
17.11.19;18:40:00;1;393;9075;0;2;0;12119;0;0;0;0;3;0;7929;0;0;0;0;4;0;9254;0;0;0;0;5;0;27701;2;0;0;0;0;0;6;0;21118;2;0;0;0;0;0;7;0;18670;0;0;0;0;8;0;18430;0;0;0;0;9;0;9899;0;0;0;0
17.11.19;18:35:00;1;389;9042;0;2;0;12119;0;0;0;0;3;0;7929;0;0;0;0;4;0;9254;0;0;0;0;5;0;27701;2;0;0;0;0;0;6;0;21118;2;0;0;0;0;0;7;0;18670;0;0;0;0;8;0;18430;0;0;0;0;9;0;9899;0;0;0;0
17.11.19;18:30:00;1;475;9010;0;2;0;12119;0;0;0;0;3;0;7929;0;0;0;0;4;0;9254;0;0;0;0;5;0;27701;2;0;0;0;0;0;6;0;21118;2;0;0;0;0;0;7;0;18670;0;0;0;0;8;0;18430;0;0;0;0;9;0;9899;0;0;0;0
17.11.19;18:25:00;1;415;8970;0;2;0;12119;0;0;0;0;3;0;7929;0;0;0;0;4;0;9254;0;0;0;0;5;0;27701;2;0;0;0;0;0;6;0;21118;2;0;0;0;0;0;7;0;18670;0;0;0;0;8;0;18430;0;0;0;0;9;0;9899;0;0;0;0
17.11.19;18:20:00;1;443;8936;0;2;0;12119;0;0;0;0;3;0;7929;0;0;0;0;4;0;9254;0;0;0;0;5;0;27701;2;0;0;0;0;0;6;0;21118;2;0;0;0;0;0;7;0;18670;0;0;0;0;8;0;18430;0;0;0;0;9;0;9899;0;0;0;0
17.11.19;18:15:00;1;1095;8898;0;2;0;12119;0;0;0;0;3;0;7929;0;0;0;0;4;0;9254;0;0;0;0;5;0;27701;2;0;0;0;0;0;6;0;21118;2;0;0;0;0;0;7;0;18670;0;0;0;0;8;0;18430;0;0;0;0;9;0;9899;0;0;0;0
17.11.19;18:10:00;1;502;8806;0;2;0;12119;0;0;0;0;3;0;7929;0;0;0;0;4;0;9254;0;0;0;0;5;0;27701;2;0;0;0;0;0;6;0;21118;2;0;0;0;0;0;7;0;18670;0;0;0;0;8;0;18430;0;0;0;0;9;0;9899;0;0;0;0
17.11.19;18:05:00;1;489;8765;0;2;0;12119;0;0;0;0;3;0;7929;0;0;0;0;4;0;9254;0;0;0;0;5;0;27701;2;0;0;0;0;0;6;0;21118;2;0;0;0;0;0;7;0;18670;0;0;0;0;8;0;18430;0;0;0;0;9;0;9899;0;0;0;0
17.11.19;18:00:00;1;505;8723;0;2;0;12119;0;0;0;0;3;0;7929;0;0;0;0;4;0;9254;0;0;0;0;5;0;27701;2;0;0;0;0;0;6;0;21118;2;0;0;0;0;0;7;0;18670;0;0;0;0;8;0;18430;0;0;0;0;9;0;9899;0;0;0;0
17.11.19;17:55:00;1;458;8681;0;2;0;12119;0;0;0;0;3;0;7929;0;0;0;0;4;0;9254;0;0;0;0;5;0;27701;2;0;0;0;0;0;6;0;21118;2;0;0;0;0;0;7;0;18670;0;0;0;0;8;0;18430;0;0;0;0;9;0;9899;0;0;0;0
17.11.19;17:50:00;1;526;8643;0;2;0;12119;0;0;0;0;3;0;7929;0;0;0;0;4;0;9254;0;0;0;0;5;0;27701;2;0;0;0;0;0;6;0;21118;2;0;0;0;0;0;7;0;18670;0;0;0;0;8;0;18430;0;0;0;0;9;0;9899;0;0;0;0
17.11.19;17:45:00;1;582;8598;0;2;0;12119;0;0;0;0;3;0;7929;0;0;0;0;4;0;9254;0;0;0;0;5;0;27701;2;0;0;0;0;0;6;0;21118;2;0;0;0;0;0;7;0;18670;0;0;0;0;8;0;18430;0;0;0;0;9;0;9899;0;0;0;0
17.11.19;17:40:00;1;525;8551;0;2;0;12119;0;0;0;0;3;0;7929;0;0;0;0;4;0;9254;0;0;0;0;5;0;27701;2;0;0;0;0;0;6;0;21118;2;0;0;0;0;0;7;0;18670;0;0;0;0;8;0;18430;0;0;0;0;9;0;9899;0;0;0;0
17.11.19;17:35:00;1;597;8507;0;2;0;12119;0;0;0;0;3;0;7929;0;0;0;0;4;0;9254;0;0;0;0;5;0;27701;2;0;0;0;0;0;6;0;21118;2;0;0;0;0;0;7;0;18670;0;0;0;0;8;0;18430;0;0;0;0;9;0;9899;0;0;0;0
17.11.19;17:30:00;1;567;8457;0;2;0;12119;0;0;0;0;3;0;7929;0;0;0;0;4;0;9254;0;0;0;0;5;0;27701;2;0;0;0;0;0;6;0;21118;2;0;0;0;0;0;7;0;18670;0;0;0;0;8;0;18430;0;0;0;0;9;0;9899;0;0;0;0
17.11.19;17:25:00;1;579;8410;0;2;0;12119;0;0;0;0;3;0;7929;0;0;0;0;4;0;9254;0;0;0;0;5;0;27701;2;0;0;0;0;0;6;0;21118;2;0;0;0;0;0;7;0;18670;0;0;0;0;8;0;18430;0;0;0;0;9;0;9899;0;0;0;0
17.11.19;17:20:00;1;610;8361;0;2;0;12119;0;0;0;0;3;0;7929;0;0;0;0;4;0;9254;0;0;0;0;5;0;27701;2;0;0;0;0;0;6;0;21118;2;0;0;0;0;0;7;0;18670;0;0;0;0;8;0;18430;0;0;0;0;9;0;9899;0;0;0;0
17.11.19;17:15:00;1;610;8310;0;2;0;12119;0;0;0;0;3;0;7929;0;0;0;0;4;0;9254;0;0;0;0;5;0;27701;2;0;0;0;0;0;6;0;21118;2;0;0;0;0;0;7;0;18670;0;0;0;0;8;0;18430;0;0;0;0;9;0;9899;0;0;0;0
17.11.19;17:10:00;1;662;8259;0;2;0;12119;0;0;0;0;3;0;7929;0;0;0;0;4;0;9254;0;0;0;0;5;0;27701;2;0;0;0;0;0;6;0;21118;2;0;0;0;0;0;7;0;18670;0;0;0;0;8;0;18430;0;0;0;0;9;0;9899;0;0;0;0
17.11.19;17:05:00;1;636;8203;0;2;0;12119;0;0;0;0;3;0;7929;0;0;0;0;4;0;9254;0;0;0;0;5;0;27701;2;0;0;0;0;0;6;0;21118;2;0;0;0;0;0;7;0;18670;0;0;0;0;8;0;18430;0;0;0;0;9;0;9899;0;0;0;0
17.11.19;17:00:00;1;593;8153;0;2;0;12119;0;0;0;0;3;0;7929;0;0;0;0;4;0;9254;0;0;0;0;5;0;27701;2;0;0;0;0;0;6;0;21118;2;0;0;0;0;0;7;0;18670;0;0;0;0;8;0;18430;0;0;0;0;9;0;9899;0;0;0;0
17.11.19;16:55:00;1;594;8104;0;2;0;12119;0;0;0;0;3;0;7929;0;0;0;0;4;0;9254;0;0;0;0;5;0;27701;2;0;0;0;0;0;6;0;21118;2;0;0;0;0;0;7;0;18670;0;0;0;0;8;0;18430;0;0;0;0;9;0;9899;0;0;0;0
17.11.19;16:50:00;1;1532;8050;0;2;0;12119;0;0;0;0;3;0;7929;0;0;35;2;4;0;9254;0;0;0;0;5;0;27701;2;0;0;0;0;0;6;0;21118;2;0;0;0;0;0;7;0;18670;0;0;0;0;8;0;18430;0;0;0;0;9;0;9899;0;0;0;0
17.11.19;16:45:00;1;608;7955;0;2;0;12119;0;0;177;10;3;0;7929;6;0;289;18;4;0;9254;0;0;10;2;5;0;27701;2;0;0;0;0;0;6;0;21118;0;0;0;0;0;0;7;0;18670;0;0;0;0;8;0;18430;0;0;0;0;9;0;9899;0;0;0;0
17.11.19;16:40:00;1;545;7904;0;2;0;12119;6;0;308;16;3;0;7929;6;0;363;18;4;0;9254;2;0;87;17;5;0;27701;2;0;0;13;12;4;6;0;21118;2;0;0;0;0;0;7;0;18670;0;0;0;0;8;0;18430;0;0;0;0;9;0;9899;0;0;41;2
17.11.19;16:35:00;1;492;7861;0;2;0;12119;6;0;345;16;3;0;7929;6;2;411;19;4;0;9254;1;0;131;17;5;0;27701;23;0;0;357;368;27;6;0;21118;23;6;3;180;418;26;7;0;18670;11;0;275;20;8;0;18430;11;0;221;16;9;0;9899;6;0;292;15
17.11.19;16:30:00;1;606;7820;0;2;0;12119;6;0;376;17;3;0;7929;6;3;455;19;4;0;9254;1;0;185;18;5;0;27701;23;0;0;402;537;28;6;0;21118;23;7;3;181;537;27;7;0;18670;6;0;367;21;8;0;18430;6;0;363;20;9;0;9899;6;0;377;16
17.11.19;16:25:00;1;630;7769;0;2;0;12119;6;0;396;17;3;1;7929;6;5;479;19;4;0;9254;3;0;210;18;5;41;27701;1;0;13;392;619;29;6;18;21118;1;8;22;526;523;27;7;0;18670;6;2;415;21;8;1;18430;3;2;404;21;9;1;9899;6;2;448;16
17.11.19;16:20:00;1;647;7714;0;2;4;12119;6;8;400;18;3;0;7929;6;10;475;20;4;0;9254;3;0;199;19;5;102;27696;4;20;24;373;588;29;6;64;21116;4;19;34;444;456;28;7;2;18670;6;4;451;22;8;2;18430;6;4;452;21;9;4;9899;6;6;468;17
17.11.19;16:15:00;1;570;7662;0;2;15;12119;6;27;392;19;3;2;7929;6;8;510;20;4;8;9254;3;8;199;19;5;138;27688;4;36;42;373;588;29;6;88;21110;4;42;59;444;456;28;7;2;18669;6;17;438;22;8;3;18430;6;17;436;22;9;3;9899;6;5;509;17
17.11.19;16:10:00;1;513;7614;0;2;68;12118;4;100;364;19;3;3;7928;6;9;530;21;4;24;9254;3;25;197;19;5;191;27676;4;71;63;373;588;29;6;123;21102;4;39;52;444;455;28;7;43;18669;6;66;412;23;8;29;18430;6;51;429;22;9;6;9898;6;11;506;17
17.11.19;16:05:00;1;498;7571;0;2;140;12112;4;174;374;20;3;72;7928;4;113;479;21;4;71;9252;3;74;203;19;5;268;27660;4;106;101;373;588;29;6;174;21092;4;74;92;444;456;28;7;103;18666;4;140;438;23;8;90;18428;4;132;435;23;9;0;9898;6;0;575;18
17.11.19;16:00:00;1;498;7530;0;2;267;12100;4;303;367;21;3;126;7922;4;168;493;22;4;145;9246;5;151;218;19;5;337;27637;4;149;130;373;588;30;6;241;21077;4;109;133;444;456;28;7;155;18657;4;202;455;24;8;139;18420;4;178;427;23;9;19;9898;4;29;446;15
17.11.19;15:55:00;1;480;7488;0;2;156;12078;4;193;381;21;3;88;7912;4;131;477;22;4;105;9234;5;109;217;20;5;319;27609;4;139;117;373;588;30;6;205;21056;4;83;97;444;456;29;7;121;18644;4;149;334;19;8;146;18409;4;181;411;23;9;73;9895;4;103;473;19
17.11.19;15:50:00;1;555;7448;0;2;171;12065;4;206;371;22;3;99;7904;4;140;480;22;4;118;9225;5;123;221;20;5;335;27582;4;145;126;373;588;30;6;216;21039;4;89;106;445;456;29;7;139;18632;4;167;318;19;8;176;18397;4;214;430;24;9;89;9889;4;117;473;19
17.11.19;15:45:00;1;455;7407;0;2;175;12051;4;211;366;23;3;101;7896;4;143;485;23;4;120;9215;5;125;223;20;5;331;27554;4;147;129;373;588;30;6;219;21021;4;98;118;444;456;29;7;185;18617;4;223;404;25;8;183;18382;4;219;414;24;9;94;9882;4;124;483;20
17.11.19;15:40:00;1;471;7369;0;2;182;12036;4;221;369;23;3;108;7888;4;149;473;23;4;119;9205;5;123;221;20;5;333;27526;4;150;130;373;588;30;6;221;21003;4;105;122;444;456;29;7;203;18602;4;238;431;25;8;196;18367;4;233;421;25;9;95;9874;4;125;493;20
17.11.19;15:35:00;1;468;7330;0;2;234;12021;4;274;365;24;3;133;7878;4;171;462;24;4;145;9195;5;151;222;21;5;387;27498;4;172;157;376;590;31;6;268;20984;4;112;137;465;484;29;7;254;18585;4;291;441;26;8;227;18351;4;278;451;25;9;105;9866;4;136;471;21
17.11.19;15:30:00;1;473;7290;0;2;608;12001;4;659;374;26;3;322;7867;4;367;419;24;4;268;9183;5;279;239;21;5;789;27464;4;383;325;400;630;31;6;586;20960;4;279;303;578;548;29;7;644;18563;4;708;482;26;8;526;18332;4;569;441;26;9;109;9857;4;134;337;17
17.11.19;15:25:00;1;615;7251;0;2;935;11951;4;998;381;27;3;501;7841;4;553;435;25;4;353;9161;5;367;241;21;5;1188;27395;4;601;499;408;642;31;6;808;20909;4;388;417;580;558;29;7;986;18510;4;1049;501;27;8;786;18288;4;840;457;26;9;157;9843;0;179;287;17
17.11.19;15:20:00;1;616;7207;0;2;988;11874;4;1055;369;28;3;524;7800;4;576;444;25;4;397;9132;5;414;243;22;5;1358;27298;4;693;572;408;658;31;6;1089;20835;4;554;567;594;539;30;7;1137;18431;4;1206;469;27;8;1034;18224;4;1100;476;27;9;300;9831;4;333;364;23
17.11.19;15:15:00;1;440;7156;0;2;1527;11792;4;1612;382;29;3;853;7756;4;915;431;26;4;513;9099;5;534;243;22;5;2009;27179;4;1047;862;411;671;32;6;1509;20746;4;733;735;589;569;30;7;1996;18338;4;2093;463;28;8;1631;18137;4;1711;368;21;9;650;9806;4;694;361;24
17.11.19;15:10:00;1;543;7117;0;2;1509;11665;4;1594;378;29;3;838;7685;4;900;431;26;4;497;9056;5;517;246;22;5;1937;27009;4;1003;827;420;676;32;6;1517;20616;4;766;775;581;573;30;7;2259;18170;4;2373;479;28;8;2202;17967;4;2314;464;28;9;662;9752;4;704;321;20
17.11.19;15:05:00;1;483;7073;0;2;1525;11539;4;1610;372;29;3;821;7616;4;881;431;26;4;522;9015;5;544;243;22;5;2022;26839;4;1064;868;415;669;32;6;1575;20486;4;776;790;593;557;30;7;2105;17982;4;2215;472;28;8;1991;17786;4;2089;445;28;9;810;9685;4;869;471;25
17.11.19;15:00:00;1;508;7032;0;2;1814;11408;4;1913;382;30;3;1018;7545;4;1089;422;27;4;617;8970;5;643;236;23;5;2610;26657;4;1384;1133;419;675;32;6;2007;20348;4;1026;1011;590;565;30;7;1309;17801;4;1378;239;14;8;2586;17614;4;2709;469;28;9;1209;9616;4;1282;456;26
17.11.19;14:55:00;1;551;6989;0;2;1498;11258;4;1582;374;30;3;791;7460;4;851;417;27;4;550;8919;5;572;236;23;5;2200;26439;4;1169;944;416;662;32;6;1783;20181;4;887;876;584;558;30;7;1814;17527;0;1905;370;23;8;2025;17399;4;2128;458;28;9;991;9514;4;1057;479;27
17.11.19;14:50:00;1;1017;6943;0;2;2029;11126;4;2145;396;32;3;1116;7390;4;1189;424;28;4;693;8871;5;721;230;23;5;2984;26239;4;1590;1298;420;682;33;6;2283;20028;4;1182;1170;587;569;30;7;2888;17383;4;3026;469;29;8;2806;17222;4;2947;467;29;9;1445;9430;4;1535;504;27
17.11.19;14:45:00;1;676;6830;0;2;2160;10958;4;2279;393;32;3;1207;7297;4;1285;449;28;4;757;8814;5;789;241;23;5;3172;25989;4;1705;1381;421;683;33;6;2418;19837;4;1248;1231;589;567;30;7;2998;17141;4;3149;468;29;8;2941;16987;4;3085;465;29;9;1580;9310;4;1675;517;28
17.11.19;14:40:00;1;664;6705;0;2;2255;10778;4;2380;401;33;3;1326;7196;4;1410;474;29;4;803;8751;5;836;236;24;5;3347;25725;4;1810;1460;417;684;33;6;2564;19634;4;1327;1319;589;565;30;7;3126;16891;4;3280;467;29;8;3061;16741;4;3208;464;29;9;1659;9179;4;1759;518;28
17.11.19;14:35:00;1;1762;6637;0;2;2392;10590;4;2522;400;33;3;1470;7086;4;1560;486;29;4;879;8684;5;915;244;24;5;3618;25445;4;1954;1582;414;667;33;6;2784;19419;4;1438;1429;585;567;30;7;3270;16630;4;3430;463;30;8;2590;16419;0;2711;372;23;9;1741;9043;4;1848;516;28
17.11.19;14:30:00;1;1160;6525;0;2;2520;10390;4;2657;397;33;3;1581;6964;4;1700;508;29;4;967;8611;5;1008;240;24;5;3923;25141;4;2118;1732;416;670;33;6;3022;19186;4;1558;1540;587;565;30;7;3454;16358;4;3626;459;30;8;1134;16218;4;1188;157;9;9;1843;8894;4;1956;518;28
17.11.19;14:25:00;1;732;6403;0;2;2610;10181;4;2751;401;34;3;1686;6832;4;1793;512;29;4;1061;8530;5;1105;246;24;5;4182;24812;4;2272;1839;413;665;33;6;3209;18934;4;1652;1613;586;562;30;7;3606;16075;4;3773;455;30;8;3547;15945;4;3721;460;29;9;1931;8743;4;2046;513;29
17.11.19;14:20:00;1;1993;6341;0;2;2725;9963;4;2874;399;34;3;1765;6692;4;1871;507;29;4;1184;8442;5;1234;247;25;5;4478;24462;4;2433;1970;413;664;33;6;3430;18665;4;1773;1727;584;564;30;7;3788;15769;4;3967;459;29;8;3722;15647;4;3903;460;29;9;2031;8580;4;2152;516;29
17.11.19;14:15:00;1;1776;6223;0;2;2826;9737;4;2979;401;34;3;1826;6545;4;1936;508;29;4;1298;8343;5;1352;250;25;5;4754;24088;4;2590;2098;411;667;33;6;3654;18378;4;1865;1835;587;563;30;7;1576;15266;0;1657;184;11;8;3093;15333;4;3247;367;23;9;2115;8409;4;2241;513;29
17.11.19;14:10:00;1;812;6095;0;2;2936;9501;4;3094;399;33;3;1897;6393;4;2010;507;29;4;1405;8236;5;1463;249;25;5;5027;23689;4;2746;2225;413;660;33;6;3845;18073;4;1956;1924;581;561;30;7;4091;15129;4;4288;458;29;8;4026;15013;4;4219;459;29;9;1458;8237;4;1545;340;19
17.11.19;14:05:00;1;1662;6030;0;2;3001;9257;4;3154;396;33;3;1934;6235;4;2048;510;29;4;1475;8119;5;1536;250;25;5;5183;23269;4;2819;2294;413;667;33;6;3961;17752;4;2029;1992;580;561;30;7;4145;14788;4;4341;455;29;8;1632;14678;4;1712;182;11;9;2230;8051;4;2359;515;28